Time,TemperatureF,DewpointF,PressureIn,WindDirection,WindDirectionDegrees,WindSpeedMPH,WindSpeedGustMPH,Humidity,HourlyPrecipIn,Conditions,Clouds,dailyrainin,SoftwareType,DateUTC
2013-08-14 00:02:00,57.7,33.6,29.93,SW,234,3.6,3.6,40,0.00,,,0.00,VWS V14.01,2013-08-14 07:02:00,
2013-08-14 00:07:00,57.6,33.4,29.93,South,179,2.7,4.9,40,0.00,,,0.00,VWS V14.01,2013-08-14 07:07:00,
2013-08-14 00:12:00,57.6,33.4,29.93,SSE,155,0.0,2.2,40,0.00,,,0.00,VWS V14.01,2013-08-14 07:12:00,
2013-08-14 00:17:00,57.6,33.4,29.93,SW,226,3.1,3.6,40,0.00,,,0.00,VWS V14.01,2013-08-14 07:17:00,
2013-08-14 00:22:00,57.6,33.4,29.93,South,190,2.7,4.0,40,0.00,,,0.00,VWS V14.01,2013-08-14 07:22:00,
2013-08-14 00:27:00,57.6,33.4,29.93,SSW,209,3.6,3.6,40,0.00,,,0.00,VWS V14.01,2013-08-14 07:27:00,
2013-08-14 00:32:00,57.6,33.4,29.93,ESE,104,2.7,2.7,40,0.00,,,0.00,VWS V14.01,2013-08-14 07:32:00,
2013-08-14 00:37:00,57.6,33.4,29.93,South,187,2.7,3.6,40,0.00,,,0.00,VWS V14.01,2013-08-14 07:37:00,
2013-08-14 00:42:00,57.6,33.4,29.93,SSW,197,2.2,2.7,40,0.00,,,0.00,VWS V14.01,2013-08-14 07:42:00,
2013-08-14 00:47:00,57.4,33.3,29.93,SSE,158,2.2,3.1,40,0.00,,,0.00,VWS V14.01,2013-08-14 07:47:00,
2013-08-14 00:52:00,57.2,33.1,29.93,South,175,2.7,2.7,40,0.00,,,0.00,VWS V14.01,2013-08-14 07:52:00,
2013-08-14 00:57:00,57.2,33.1,29.93,SSW,197,0.0,3.1,40,0.00,,,0.00,VWS V14.01,2013-08-14 07:57:00,
2013-08-14 01:03:00,57.2,33.1,29.93,SW,220,2.7,3.1,40,0.00,,,0.00,VWS V14.01,2013-08-14 08:03:00,
2013-08-14 01:08:00,57.0,33.6,29.93,SSW,210,2.7,2.7,41,0.00,,,0.00,VWS V14.01,2013-08-14 08:08:00,
2013-08-14 01:13:00,56.8,33.4,29.93,SSW,206,4.0,4.0,41,0.00,,,0.00,VWS V14.01,2013-08-14 08:13:00,
2013-08-14 01:18:00,56.7,33.2,29.93,SSW,206,2.7,2.7,41,0.00,,,0.00,VWS V14.01,2013-08-14 08:18:00,
2013-08-14 01:23:00,56.7,33.2,29.93,SSW,209,2.2,2.2,41,0.00,,,0.00,VWS V14.01,2013-08-14 08:23:00,
2013-08-14 01:27:00,56.5,33.7,29.93,SW,221,3.1,3.6,42,0.00,,,0.00,VWS V14.01,2013-08-14 08:27:00,
2013-08-14 01:32:00,56.5,33.7,29.93,SSW,206,2.2,3.1,42,0.00,,,0.00,VWS V14.01,2013-08-14 08:32:00,
2013-08-14 01:38:00,56.5,33.7,29.93,South,189,0.0,2.7,42,0.00,,,0.00,VWS V14.01,2013-08-14 08:38:00,
2013-08-14 01:43:00,56.5,34.3,29.93,SSW,205,2.2,3.1,43,0.00,,,0.00,VWS V14.01,2013-08-14 08:43:00,
2013-08-14 01:48:00,56.5,34.3,29.93,SSW,193,0.0,3.6,43,0.00,,,0.00,VWS V14.01,2013-08-14 08:48:00,
2013-08-14 01:53:00,56.5,34.3,29.93,SE,132,0.0,2.2,43,0.00,,,0.00,VWS V14.01,2013-08-14 08:53:00,
2013-08-14 01:58:00,56.5,34.3,29.93,SSW,213,2.7,2.7,43,0.00,,,0.00,VWS V14.01,2013-08-14 08:58:00,
2013-08-14 02:03:00,56.3,34.1,29.93,South,185,0.0,2.7,43,0.00,,,0.00,VWS V14.01,2013-08-14 09:03:00,
2013-08-14 02:08:00,56.3,34.1,29.93,South,191,0.0,0.0,43,0.00,,,0.00,VWS V14.01,2013-08-14 09:08:00,
2013-08-14 02:13:00,56.3,34.1,29.93,SW,215,0.0,2.7,43,0.00,,,0.00,VWS V14.01,2013-08-14 09:13:00,
2013-08-14 02:18:00,56.5,34.3,29.93,SSE,168,4.0,4.0,43,0.00,,,0.00,VWS V14.01,2013-08-14 09:18:00,
2013-08-14 02:23:00,56.7,34.4,29.93,SSW,213,2.7,4.0,43,0.00,,,0.00,VWS V14.01,2013-08-14 09:23:00,
2013-08-14 02:28:00,56.7,34.4,29.93,South,182,2.7,4.0,43,0.00,,,0.00,VWS V14.01,2013-08-14 09:28:00,
2013-08-14 02:33:00,56.7,34.4,29.93,SSE,157,2.2,4.0,43,0.00,,,0.00,VWS V14.01,2013-08-14 09:33:00,
2013-08-14 02:38:00,56.7,34.4,29.93,SSW,203,3.6,4.0,43,0.00,,,0.00,VWS V14.01,2013-08-14 09:38:00,
2013-08-14 02:43:00,56.5,34.3,29.93,SW,228,2.2,2.2,43,0.00,,,0.00,VWS V14.01,2013-08-14 09:43:00,
2013-08-14 02:48:00,56.3,34.1,29.93,SE,137,0.0,3.1,43,0.00,,,0.00,VWS V14.01,2013-08-14 09:48:00,
2013-08-14 02:53:00,56.1,34.5,29.93,SW,230,2.2,3.1,44,0.00,,,0.00,VWS V14.01,2013-08-14 09:53:00,
2013-08-14 02:58:00,56.1,34.5,29.93,SE,140,2.7,3.1,44,0.00,,,0.00,VWS V14.01,2013-08-14 09:58:00,
2013-08-14 03:03:00,55.9,34.4,29.93,South,188,0.0,0.0,44,0.00,,,0.00,VWS V14.01,2013-08-14 10:03:00,
2013-08-14 03:08:00,55.9,34.4,29.93,SSW,195,0.0,0.0,44,0.00,,,0.00,VWS V14.01,2013-08-14 10:08:00,
2013-08-14 03:13:00,55.9,34.9,29.93,SSW,194,2.7,2.7,45,0.00,,,0.00,VWS V14.01,2013-08-14 10:13:00,
2013-08-14 03:18:00,55.9,34.9,29.93,South,190,0.0,0.0,45,0.00,,,0.00,VWS V14.01,2013-08-14 10:18:00,
2013-08-14 03:23:00,55.9,34.9,29.93,South,190,0.0,0.0,45,0.00,,,0.00,VWS V14.01,2013-08-14 10:23:00,
2013-08-14 03:28:00,55.8,34.8,29.93,SSE,167,3.6,3.6,45,0.00,,,0.00,VWS V14.01,2013-08-14 10:28:00,
2013-08-14 03:33:00,55.8,34.8,29.93,SW,225,2.7,2.7,45,0.00,,,0.00,VWS V14.01,2013-08-14 10:33:00,
2013-08-14 03:38:00,55.9,34.9,29.93,SE,140,0.0,2.7,45,0.00,,,0.00,VWS V14.01,2013-08-14 10:38:00,
2013-08-14 03:43:00,55.9,34.9,29.93,SSE,161,3.1,3.6,45,0.00,,,0.00,VWS V14.01,2013-08-14 10:43:00,
2013-08-14 03:48:00,56.1,35.6,29.93,South,173,2.7,3.1,46,0.00,,,0.00,VWS V14.01,2013-08-14 10:48:00,
2013-08-14 03:53:00,56.1,36.2,29.93,ESE,116,3.6,3.6,47,0.00,,,0.00,VWS V14.01,2013-08-14 10:53:00,
2013-08-14 03:58:00,55.9,36.0,29.93,South,173,3.6,3.6,47,0.00,,,0.00,VWS V14.01,2013-08-14 10:58:00,
2013-08-14 04:03:00,55.9,36.0,29.93,South,183,0.0,2.7,47,0.00,,,0.00,VWS V14.01,2013-08-14 11:03:00,
2013-08-14 04:08:00,55.9,36.0,29.93,SSW,198,3.1,3.1,47,0.00,,,0.00,VWS V14.01,2013-08-14 11:08:00,
2013-08-14 04:13:00,55.9,36.0,29.93,South,174,2.7,2.7,47,0.00,,,0.00,VWS V14.01,2013-08-14 11:13:00,
2013-08-14 04:18:00,55.9,36.0,29.93,SSW,198,0.0,0.0,47,0.00,,,0.00,VWS V14.01,2013-08-14 11:18:00,
2013-08-14 04:23:00,55.8,36.4,29.93,SE,136,0.0,3.1,48,0.00,,,0.00,VWS V14.01,2013-08-14 11:23:00,
2013-08-14 04:28:00,55.8,36.4,29.93,SSW,213,2.2,2.7,48,0.00,,,0.00,VWS V14.01,2013-08-14 11:28:00,
2013-08-14 04:33:00,55.8,36.4,29.93,SSW,192,2.7,2.7,48,0.00,,,0.00,VWS V14.01,2013-08-14 11:33:00,
2013-08-14 04:38:00,55.9,36.5,29.93,South,182,3.1,5.4,48,0.00,,,0.00,VWS V14.01,2013-08-14 11:38:00,
2013-08-14 04:43:00,55.9,37.1,29.93,South,188,2.7,2.7,49,0.00,,,0.00,VWS V14.01,2013-08-14 11:43:00,
2013-08-14 04:48:00,55.9,37.1,29.93,SE,132,3.1,3.6,49,0.00,,,0.00,VWS V14.01,2013-08-14 11:48:00,
2013-08-14 04:53:00,55.9,37.6,29.93,SE,145,4.9,4.9,50,0.00,,,0.00,VWS V14.01,2013-08-14 11:53:00,
2013-08-14 04:58:00,56.1,38.3,29.93,SE,131,5.4,5.4,51,0.00,,,0.00,VWS V14.01,2013-08-14 11:58:00,
2013-08-14 05:03:00,56.3,38.4,29.93,SW,230,3.1,3.1,51,0.00,,,0.00,VWS V14.01,2013-08-14 12:03:00,
2013-08-14 05:08:00,56.3,38.9,29.93,SW,225,2.7,2.7,52,0.00,,,0.00,VWS V14.01,2013-08-14 12:08:00,
2013-08-14 05:13:00,56.3,39.4,29.93,SSE,150,4.0,4.0,53,0.00,,,0.00,VWS V14.01,2013-08-14 12:13:00,
2013-08-14 05:18:00,56.5,40.0,29.93,South,191,2.7,2.7,54,0.00,,,0.00,VWS V14.01,2013-08-14 12:18:00,
2013-08-14 05:23:00,56.7,40.7,29.93,South,171,4.9,4.9,55,0.00,,,0.00,VWS V14.01,2013-08-14 12:23:00,
2013-08-14 05:28:00,56.7,41.2,29.93,South,181,4.0,6.3,56,0.00,,,0.00,VWS V14.01,2013-08-14 12:28:00,
2013-08-14 05:33:00,56.7,41.2,29.93,SSW,196,0.0,2.2,56,0.00,,,0.00,VWS V14.01,2013-08-14 12:33:00,
2013-08-14 05:38:00,56.8,41.8,29.93,ESE,115,2.7,3.1,57,0.00,,,0.00,VWS V14.01,2013-08-14 12:38:00,
2013-08-14 05:43:00,56.8,42.2,29.93,South,180,4.9,4.9,58,0.00,,,0.00,VWS V14.01,2013-08-14 12:43:00,
2013-08-14 05:48:00,57.0,42.4,29.93,South,176,2.7,3.6,58,0.00,,,0.00,VWS V14.01,2013-08-14 12:48:00,
2013-08-14 05:53:00,57.0,42.8,29.93,SW,219,0.0,3.1,59,0.00,,,0.00,VWS V14.01,2013-08-14 12:53:00,
2013-08-14 05:58:00,57.0,43.3,29.93,SSE,154,4.0,5.4,60,0.00,,,0.00,VWS V14.01,2013-08-14 12:58:00,
2013-08-14 06:03:00,57.2,43.5,29.93,SSE,157,0.0,4.9,60,0.00,,,0.00,VWS V14.01,2013-08-14 13:03:00,
2013-08-14 06:08:00,57.2,43.5,29.93,SSW,210,4.0,4.0,60,0.00,,,0.00,VWS V14.01,2013-08-14 13:08:00,
2013-08-14 06:13:00,57.2,43.9,29.93,SSW,200,3.6,3.6,61,0.00,,,0.00,VWS V14.01,2013-08-14 13:13:00,
2013-08-14 06:18:00,57.2,43.9,29.93,South,169,3.1,8.7,61,0.00,,,0.00,VWS V14.01,2013-08-14 13:18:00,
2013-08-14 06:23:00,57.2,43.9,29.93,SSW,209,5.4,5.4,61,0.00,,,0.00,VWS V14.01,2013-08-14 13:23:00,
2013-08-14 06:28:00,57.2,44.3,29.93,ESE,110,3.1,3.1,62,0.00,,,0.00,VWS V14.01,2013-08-14 13:28:00,
2013-08-14 06:33:00,57.0,44.1,29.93,SSW,205,2.7,4.9,62,0.00,,,0.00,VWS V14.01,2013-08-14 13:33:00,
2013-08-14 06:38:00,57.0,44.1,29.93,SW,234,2.7,4.0,62,0.00,,,0.00,VWS V14.01,2013-08-14 13:38:00,
2013-08-14 06:43:00,57.2,44.3,29.93,South,187,0.0,2.7,62,0.00,,,0.00,VWS V14.01,2013-08-14 13:43:00,
2013-08-14 06:48:00,57.2,44.3,29.93,ESE,108,2.2,3.6,62,0.00,,,0.00,VWS V14.01,2013-08-14 13:48:00,
2013-08-14 06:53:00,57.2,44.3,29.93,South,182,2.7,3.6,62,0.00,,,0.00,VWS V14.01,2013-08-14 13:53:00,
2013-08-14 06:58:00,57.2,44.7,29.93,South,177,0.0,0.0,63,0.00,,,0.00,VWS V14.01,2013-08-14 13:58:00,
2013-08-14 07:03:00,57.2,44.3,29.93,SW,225,3.1,4.0,62,0.00,,,0.00,VWS V14.01,2013-08-14 14:03:00,
2013-08-14 07:08:00,57.2,44.3,29.93,SSW,206,0.0,2.2,62,0.00,,,0.00,VWS V14.01,2013-08-14 14:08:00,
2013-08-14 07:13:00,57.0,44.1,29.93,SSW,208,0.0,0.0,62,0.00,,,0.00,VWS V14.01,2013-08-14 14:13:00,
2013-08-14 07:18:00,57.0,44.1,29.93,SSW,206,2.7,3.6,62,0.00,,,0.00,VWS V14.01,2013-08-14 14:18:00,
2013-08-14 07:23:00,57.0,44.1,29.93,South,179,3.1,5.4,62,0.00,,,0.00,VWS V14.01,2013-08-14 14:23:00,
2013-08-14 07:28:00,57.0,44.1,29.93,South,174,0.0,3.1,62,0.00,,,0.00,VWS V14.01,2013-08-14 14:28:00,
2013-08-14 07:33:00,57.0,44.1,29.93,SW,216,2.2,2.7,62,0.00,,,0.00,VWS V14.01,2013-08-14 14:33:00,
2013-08-14 07:39:00,57.2,44.3,29.93,SSW,210,0.0,2.7,62,0.00,,,0.00,VWS V14.01,2013-08-14 14:39:00,
2013-08-14 07:44:00,57.2,44.3,29.93,South,171,0.0,2.2,62,0.00,,,0.00,VWS V14.01,2013-08-14 14:44:00,
2013-08-14 07:49:00,57.4,44.5,29.93,SSW,209,0.0,2.7,62,0.00,,,0.00,VWS V14.01,2013-08-14 14:49:00,
2013-08-14 07:54:00,57.6,44.7,29.93,SW,215,3.1,3.1,62,0.00,,,0.00,VWS V14.01,2013-08-14 14:54:00,
2013-08-14 07:59:00,57.7,44.8,29.93,SW,222,0.0,2.7,62,0.00,,,0.00,VWS V14.01,2013-08-14 14:59:00,
2013-08-14 08:04:00,57.9,45.0,29.93,SW,214,0.0,4.0,62,0.00,,,0.00,VWS V14.01,2013-08-14 15:04:00,
2013-08-14 08:09:00,58.1,45.2,29.93,SW,218,2.7,3.1,62,0.00,,,0.00,VWS V14.01,2013-08-14 15:09:00,
2013-08-14 08:14:00,58.5,45.5,29.93,SSW,213,0.0,2.7,62,0.00,,,0.00,VWS V14.01,2013-08-14 15:14:00,
2013-08-14 08:19:00,58.6,45.7,29.93,South,175,0.0,3.1,62,0.00,,,0.00,VWS V14.01,2013-08-14 15:19:00,
2013-08-14 08:24:00,58.8,45.4,29.96,SW,223,3.6,3.6,61,0.00,,,0.00,VWS V14.01,2013-08-14 15:24:00,
2013-08-14 08:29:00,58.6,44.4,29.96,SW,218,2.7,5.4,59,0.00,,,0.00,VWS V14.01,2013-08-14 15:29:00,
2013-08-14 08:34:00,59.0,44.3,29.96,SSE,156,3.6,3.6,58,0.00,,,0.00,VWS V14.01,2013-08-14 15:34:00,
2013-08-14 08:39:00,59.2,43.5,29.93,SSE,150,4.9,4.9,56,0.00,,,0.00,VWS V14.01,2013-08-14 15:39:00,
2013-08-14 08:44:00,59.5,42.9,29.93,SSW,195,0.0,0.0,54,0.00,,,0.00,VWS V14.01,2013-08-14 15:44:00,
2013-08-14 08:49:00,59.7,42.1,29.93,SW,217,4.0,4.0,52,0.00,,,0.00,VWS V14.01,2013-08-14 15:49:00,
2013-08-14 08:54:00,59.9,41.2,29.96,South,188,2.7,2.7,50,0.00,,,0.00,VWS V14.01,2013-08-14 15:54:00,
2013-08-14 08:59:00,60.3,40.5,29.96,South,185,2.2,4.0,48,0.00,,,0.00,VWS V14.01,2013-08-14 15:59:00,
2013-08-14 09:04:00,60.4,40.1,29.96,SSW,204,3.6,3.6,47,0.00,,,0.00,VWS V14.01,2013-08-14 16:04:00,
2013-08-14 09:09:00,60.3,38.3,29.96,SSE,162,4.5,4.5,44,0.00,,,0.00,VWS V14.01,2013-08-14 16:09:00,
2013-08-14 09:14:00,60.4,37.3,29.96,SW,223,5.4,5.4,42,0.00,,,0.00,VWS V14.01,2013-08-14 16:14:00,
2013-08-14 09:19:00,60.6,35.5,29.96,SW,222,2.7,2.7,39,0.00,,,0.00,VWS V14.01,2013-08-14 16:19:00,
2013-08-14 09:24:00,61.0,33.9,29.96,SW,218,2.7,2.7,36,0.00,,,0.00,VWS V14.01,2013-08-14 16:24:00,
2013-08-14 09:29:00,61.3,33.5,29.96,SSW,196,2.7,4.0,35,0.00,,,0.00,VWS V14.01,2013-08-14 16:29:00,
2013-08-14 09:34:00,61.9,34.0,29.96,SSW,192,0.0,0.0,35,0.00,,,0.00,VWS V14.01,2013-08-14 16:34:00,
2013-08-14 09:39:00,62.2,34.3,29.96,SSE,164,3.1,5.4,35,0.00,,,0.00,VWS V14.01,2013-08-14 16:39:00,
2013-08-14 09:44:00,62.6,32.3,29.96,South,174,4.9,6.3,32,0.00,,,0.00,VWS V14.01,2013-08-14 16:44:00,
2013-08-14 09:49:00,63.0,31.1,29.96,SW,219,3.1,5.8,30,0.00,,,0.00,VWS V14.01,2013-08-14 16:49:00,
2013-08-14 09:55:00,63.3,29.7,29.96,SW,219,2.2,3.6,28,0.00,,,0.00,VWS V14.01,2013-08-14 16:55:00,
2013-08-14 10:00:00,63.5,28.0,29.96,SSW,201,3.6,8.3,26,0.00,,,0.00,VWS V14.01,2013-08-14 17:00:00,
2013-08-14 10:05:00,63.9,28.3,29.96,WSW,252,4.0,7.6,26,0.00,,,0.00,VWS V14.01,2013-08-14 17:05:00,
2013-08-14 10:10:00,63.9,27.4,29.96,SSE,166,6.3,6.3,25,0.00,,,0.00,VWS V14.01,2013-08-14 17:10:00,
2013-08-14 10:15:00,64.0,26.5,29.96,SSE,147,3.1,4.0,24,0.00,,,0.00,VWS V14.01,2013-08-14 17:15:00,
2013-08-14 10:20:00,64.2,26.7,29.96,SW,216,2.7,2.7,24,0.00,,,0.00,VWS V14.01,2013-08-14 17:20:00,
2013-08-14 10:25:00,64.6,26.0,29.96,SSW,209,4.0,5.8,23,0.00,,,0.00,VWS V14.01,2013-08-14 17:25:00,
2013-08-14 10:30:00,64.8,26.1,29.96,SSW,206,3.6,3.6,23,0.00,,,0.00,VWS V14.01,2013-08-14 17:30:00,
2013-08-14 10:35:00,65.1,26.4,29.96,SE,131,4.5,4.5,23,0.00,,,0.00,VWS V14.01,2013-08-14 17:35:00,
2013-08-14 10:40:00,65.7,26.9,29.96,SW,222,3.1,4.0,23,0.00,,,0.00,VWS V14.01,2013-08-14 17:40:00,
2013-08-14 10:45:00,66.0,27.2,29.96,SW,218,3.1,4.0,23,0.00,,,0.00,VWS V14.01,2013-08-14 17:45:00,
2013-08-14 10:50:00,66.4,26.4,29.96,South,189,3.6,3.6,22,0.00,,,0.00,VWS V14.01,2013-08-14 17:50:00,
2013-08-14 10:55:00,66.6,24.3,29.96,SSW,196,4.5,4.5,20,0.00,,,0.00,VWS V14.01,2013-08-14 17:55:00,
2013-08-14 11:00:00,66.7,20.6,29.96,SSW,209,0.0,6.3,17,0.00,,,0.00,VWS V14.01,2013-08-14 18:00:00,
2013-08-14 11:05:00,67.1,24.7,29.96,West,278,4.9,4.9,20,0.00,,,0.00,VWS V14.01,2013-08-14 18:05:00,
2013-08-14 11:10:00,67.5,21.2,29.96,SSW,192,4.0,6.3,17,0.00,,,0.00,VWS V14.01,2013-08-14 18:10:00,
2013-08-14 11:15:00,67.5,21.2,29.96,SW,221,6.3,6.3,17,0.00,,,0.00,VWS V14.01,2013-08-14 18:15:00,
2013-08-14 11:20:00,67.6,21.3,29.96,SW,233,5.4,5.4,17,0.00,,,0.00,VWS V14.01,2013-08-14 18:20:00,
2013-08-14 11:26:00,67.6,21.3,29.96,WSW,257,3.6,5.8,17,0.00,,,0.00,VWS V14.01,2013-08-14 18:26:00,
2013-08-14 11:31:00,68.0,21.6,29.96,South,176,3.1,3.1,17,0.00,,,0.00,VWS V14.01,2013-08-14 18:31:00,
2013-08-14 11:36:00,68.4,19.0,29.96,SSW,204,3.1,3.1,15,0.00,,,0.00,VWS V14.01,2013-08-14 18:36:00,
2013-08-14 11:41:00,68.4,19.0,29.96,WSW,248,5.8,6.3,15,0.00,,,0.00,VWS V14.01,2013-08-14 18:41:00,
2013-08-14 11:46:00,68.7,19.2,29.96,South,190,2.2,6.7,15,0.00,,,0.00,VWS V14.01,2013-08-14 18:46:00,
2013-08-14 11:51:00,68.9,19.4,29.96,SW,215,4.0,4.0,15,0.00,,,0.00,VWS V14.01,2013-08-14 18:51:00,
2013-08-14 11:57:00,69.4,19.8,29.96,WSW,241,5.8,6.3,15,0.00,,,0.00,VWS V14.01,2013-08-14 18:57:00,
2013-08-14 12:02:00,69.8,14.9,29.96,South,187,2.7,2.7,12,0.00,,,0.00,VWS V14.01,2013-08-14 19:02:00,
2013-08-14 12:07:00,69.4,14.6,29.96,SSW,211,5.8,8.3,12,0.00,,,0.00,VWS V14.01,2013-08-14 19:07:00,
2013-08-14 12:12:00,69.6,14.8,29.96,SSW,212,6.3,6.3,12,0.00,,,0.00,VWS V14.01,2013-08-14 19:12:00,
2013-08-14 12:17:00,70.0,15.1,29.96,SSW,209,4.0,4.0,12,0.00,,,0.00,VWS V14.01,2013-08-14 19:17:00,
2013-08-14 12:22:00,69.6,14.8,29.93,WSW,244,3.6,5.4,12,0.00,,,0.00,VWS V14.01,2013-08-14 19:22:00,
2013-08-14 12:27:00,69.4,14.6,29.93,SW,230,4.0,5.4,12,0.00,,,0.00,VWS V14.01,2013-08-14 19:27:00,
2013-08-14 12:32:00,69.4,14.6,29.93,WSW,240,5.8,5.8,12,0.00,,,0.00,VWS V14.01,2013-08-14 19:32:00,
2013-08-14 12:37:00,69.6,20.0,29.96,SSW,205,3.6,3.6,15,0.00,,,0.00,VWS V14.01,2013-08-14 19:37:00,
2013-08-14 12:42:00,69.4,14.6,29.96,SSW,198,4.0,4.9,12,0.00,,,0.00,VWS V14.01,2013-08-14 19:42:00,
2013-08-14 12:48:00,68.9,19.4,29.96,WSW,252,7.2,7.2,15,0.00,,,0.00,VWS V14.01,2013-08-14 19:48:00,
2013-08-14 12:53:00,68.2,18.8,29.96,SW,224,7.2,7.2,15,0.00,,,0.00,VWS V14.01,2013-08-14 19:53:00,
2013-08-14 12:58:00,68.7,19.2,29.96,South,190,3.1,6.3,15,0.00,,,0.00,VWS V14.01,2013-08-14 19:58:00,
2013-08-14 13:03:00,69.3,19.7,29.96,SSW,200,5.4,5.4,15,0.00,,,0.00,VWS V14.01,2013-08-14 20:03:00,
2013-08-14 13:08:00,69.4,19.8,29.96,South,189,3.6,5.8,15,0.00,,,0.00,VWS V14.01,2013-08-14 20:08:00,
2013-08-14 13:13:00,69.8,18.5,29.96,South,189,5.4,5.4,14,0.00,,,0.00,VWS V14.01,2013-08-14 20:13:00,
2013-08-14 13:18:00,69.4,19.8,29.96,SW,230,5.8,5.8,15,0.00,,,0.00,VWS V14.01,2013-08-14 20:18:00,
2013-08-14 13:23:00,69.4,19.8,29.96,SSW,198,2.7,5.8,15,0.00,,,0.00,VWS V14.01,2013-08-14 20:23:00,
2013-08-14 13:29:00,69.4,14.6,29.96,SW,220,5.8,5.8,12,0.00,,,0.00,VWS V14.01,2013-08-14 20:29:00,
2013-08-14 13:34:00,68.7,19.2,29.96,SSW,202,3.1,5.8,15,0.00,,,0.00,VWS V14.01,2013-08-14 20:34:00,
2013-08-14 13:39:00,68.7,19.2,29.96,SW,216,4.9,6.3,15,0.00,,,0.00,VWS V14.01,2013-08-14 20:39:00,
2013-08-14 13:44:00,68.9,19.4,29.96,WSW,238,3.6,4.5,15,0.00,,,0.00,VWS V14.01,2013-08-14 20:44:00,
2013-08-14 13:49:00,69.1,19.5,29.96,SW,218,7.2,7.2,15,0.00,,,0.00,VWS V14.01,2013-08-14 20:49:00,
2013-08-14 13:54:00,69.3,14.5,29.96,SSW,205,5.4,5.4,12,0.00,,,0.00,VWS V14.01,2013-08-14 20:54:00,
2013-08-14 13:59:00,69.4,14.6,29.96,SW,229,3.1,3.6,12,0.00,,,0.00,VWS V14.01,2013-08-14 20:59:00,
2013-08-14 14:04:00,69.4,14.6,29.96,South,184,3.6,3.6,12,0.00,,,0.00,VWS V14.01,2013-08-14 21:04:00,
2013-08-14 14:09:00,69.6,14.8,29.96,SW,225,5.8,5.8,12,0.00,,,0.00,VWS V14.01,2013-08-14 21:09:00,
2013-08-14 14:14:00,70.0,15.1,29.96,SSW,196,3.1,3.6,12,0.00,,,0.00,VWS V14.01,2013-08-14 21:14:00,
2013-08-14 14:19:00,70.3,15.4,29.96,SSW,213,2.7,3.1,12,0.00,,,0.00,VWS V14.01,2013-08-14 21:19:00,
2013-08-14 14:24:00,70.7,15.6,29.96,SSE,151,4.0,4.0,12,0.00,,,0.00,VWS V14.01,2013-08-14 21:24:00,
2013-08-14 14:29:00,70.5,15.5,29.96,SW,215,3.6,3.6,12,0.00,,,0.00,VWS V14.01,2013-08-14 21:29:00,
2013-08-14 14:34:00,70.5,15.5,29.93,SW,229,6.3,6.3,12,0.00,,,0.00,VWS V14.01,2013-08-14 21:34:00,
2013-08-14 14:39:00,70.9,15.8,29.93,SSW,201,6.3,6.3,12,0.00,,,0.00,VWS V14.01,2013-08-14 21:39:00,
2013-08-14 14:44:00,71.2,16.1,29.93,WSW,248,3.6,4.0,12,0.00,,,0.00,VWS V14.01,2013-08-14 21:44:00,
2013-08-14 14:49:00,71.6,14.4,29.93,SW,225,5.8,5.8,11,0.00,,,0.00,VWS V14.01,2013-08-14 21:49:00,
2013-08-14 14:54:00,71.8,14.5,29.93,WSW,237,7.6,7.6,11,0.00,,,0.00,VWS V14.01,2013-08-14 21:54:00,
2013-08-14 14:59:00,71.8,14.5,29.93,SSW,211,5.8,5.8,11,0.00,,,0.00,VWS V14.01,2013-08-14 21:59:00,
2013-08-14 15:05:00,72.0,14.6,29.93,SW,218,5.4,5.8,11,0.00,,,0.00,VWS V14.01,2013-08-14 22:05:00,
2013-08-14 15:10:00,72.0,14.6,29.93,SW,223,6.3,6.3,11,0.00,,,0.00,VWS V14.01,2013-08-14 22:10:00,
2013-08-14 15:15:00,72.5,15.0,29.93,WSW,251,6.7,6.7,11,0.00,,,0.00,VWS V14.01,2013-08-14 22:15:00,
2013-08-14 15:20:00,72.1,14.8,29.93,WSW,255,6.3,7.2,11,0.00,,,0.00,VWS V14.01,2013-08-14 22:20:00,
2013-08-14 15:25:00,72.5,15.0,29.93,WSW,252,5.8,5.8,11,0.00,,,0.00,VWS V14.01,2013-08-14 22:25:00,
2013-08-14 15:30:00,72.7,15.2,29.93,SW,234,3.1,5.8,11,0.00,,,0.00,VWS V14.01,2013-08-14 22:30:00,
2013-08-14 15:35:00,72.7,15.2,29.93,SE,130,2.7,4.9,11,0.00,,,0.00,VWS V14.01,2013-08-14 22:35:00,
2013-08-14 15:40:00,72.5,15.0,29.93,SSW,202,6.3,6.3,11,0.00,,,0.00,VWS V14.01,2013-08-14 22:40:00,
2013-08-14 15:45:00,72.0,14.6,29.93,SSW,209,3.1,6.3,11,0.00,,,0.00,VWS V14.01,2013-08-14 22:45:00,
2013-08-14 15:50:00,72.3,14.9,29.93,SSW,212,7.2,7.2,11,0.00,,,0.00,VWS V14.01,2013-08-14 22:50:00,
2013-08-14 15:55:00,72.3,14.9,29.93,WSW,255,3.6,5.8,11,0.00,,,0.00,VWS V14.01,2013-08-14 22:55:00,
2013-08-14 16:00:00,72.7,15.2,29.93,SW,221,4.0,6.3,11,0.00,,,0.00,VWS V14.01,2013-08-14 23:00:00,
2013-08-14 16:05:00,72.7,15.2,29.93,South,171,3.1,3.1,11,0.00,,,0.00,VWS V14.01,2013-08-14 23:05:00,
2013-08-14 16:10:00,72.9,15.3,29.93,SSW,208,4.0,4.0,11,0.00,,,0.00,VWS V14.01,2013-08-14 23:10:00,
2013-08-14 16:15:00,72.7,15.2,29.93,SSW,199,4.0,5.4,11,0.00,,,0.00,VWS V14.01,2013-08-14 23:15:00,
2013-08-14 16:20:00,72.9,15.3,29.93,WSW,243,3.6,3.6,11,0.00,,,0.00,VWS V14.01,2013-08-14 23:20:00,
2013-08-14 16:25:00,72.9,15.3,29.93,SW,216,3.6,5.8,11,0.00,,,0.00,VWS V14.01,2013-08-14 23:25:00,
2013-08-14 16:30:00,72.5,15.0,29.93,SSW,208,3.1,3.6,11,0.00,,,0.00,VWS V14.01,2013-08-14 23:30:00,
2013-08-14 16:35:00,72.7,15.2,29.93,SW,233,5.4,7.2,11,0.00,,,0.00,VWS V14.01,2013-08-14 23:35:00,
2013-08-14 16:40:00,72.3,14.9,29.93,SSW,195,4.9,6.3,11,0.00,,,0.00,VWS V14.01,2013-08-14 23:40:00,
2013-08-14 16:41:00,72.1,14.8,29.93,SSW,210,6.3,6.3,11,0.00,,,0.00,VWS V14.01,2013-08-14 23:41:00,
2013-08-14 16:46:00,71.6,19.9,29.93,SW,229,5.8,5.8,14,0.00,,,0.00,VWS V14.01,2013-08-14 23:46:00,
2013-08-14 16:51:00,71.4,19.8,29.93,WSW,243,7.6,7.6,14,0.00,,,0.00,VWS V14.01,2013-08-14 23:51:00,
2013-08-14 16:56:00,71.4,19.8,29.93,SW,226,6.3,8.1,14,0.00,,,0.00,VWS V14.01,2013-08-14 23:56:00,
2013-08-14 17:01:00,71.4,19.8,29.93,WSW,254,4.9,7.6,14,0.00,,,0.00,VWS V14.01,2013-08-15 00:01:00,
2013-08-14 17:06:00,70.9,19.4,29.93,SSW,209,3.6,3.6,14,0.00,,,0.00,VWS V14.01,2013-08-15 00:06:00,
2013-08-14 17:11:00,70.5,23.6,29.93,WSW,255,8.1,8.1,17,0.00,,,0.00,VWS V14.01,2013-08-15 00:11:00,
2013-08-14 17:16:00,70.0,23.2,29.93,SSW,203,6.3,7.6,17,0.00,,,0.00,VWS V14.01,2013-08-15 00:16:00,
2013-08-14 17:21:00,69.6,26.8,29.93,WSW,246,4.9,6.3,20,0.00,,,0.00,VWS V14.01,2013-08-15 00:21:00,
2013-08-14 17:26:00,69.6,29.1,29.93,SSW,193,5.4,5.4,22,0.00,,,0.00,VWS V14.01,2013-08-15 00:26:00,
2013-08-14 17:31:00,69.3,28.8,29.93,SW,230,6.3,7.6,22,0.00,,,0.00,VWS V14.01,2013-08-15 00:31:00,
2013-08-14 17:36:00,69.3,29.9,29.90,South,178,2.7,4.0,23,0.00,,,0.00,VWS V14.01,2013-08-15 00:36:00,
2013-08-14 17:41:00,69.1,29.8,29.90,SSW,200,6.3,7.2,23,0.00,,,0.00,VWS V14.01,2013-08-15 00:41:00,
2013-08-14 17:47:00,69.1,29.8,29.90,SSE,158,4.0,5.8,23,0.00,,,0.00,VWS V14.01,2013-08-15 00:47:00,
2013-08-14 17:51:00,68.7,29.5,29.90,South,191,5.4,5.4,23,0.00,,,0.00,VWS V14.01,2013-08-15 00:51:00,
2013-08-14 17:57:00,68.7,29.5,29.90,SSW,211,3.1,4.0,23,0.00,,,0.00,VWS V14.01,2013-08-15 00:57:00,
2013-08-14 18:02:00,68.7,29.5,29.90,SE,131,6.3,6.3,23,0.00,,,0.00,VWS V14.01,2013-08-15 01:02:00,
2013-08-14 18:07:00,68.5,29.3,29.90,SSE,150,4.9,4.9,23,0.00,,,0.00,VWS V14.01,2013-08-15 01:07:00,
2013-08-14 18:12:00,68.4,29.1,29.90,WSW,239,6.7,6.7,23,0.00,,,0.00,VWS V14.01,2013-08-15 01:12:00,
2013-08-14 18:17:00,68.4,30.2,29.90,SSE,149,3.6,5.4,24,0.00,,,0.00,VWS V14.01,2013-08-15 01:17:00,
2013-08-14 18:22:00,67.8,29.7,29.90,SW,226,3.6,4.0,24,0.00,,,0.00,VWS V14.01,2013-08-15 01:22:00,
2013-08-14 18:27:00,67.1,30.1,29.90,WSW,240,4.0,4.0,25,0.00,,,0.00,VWS V14.01,2013-08-15 01:27:00,
2013-08-14 18:32:00,66.7,31.7,29.90,SW,218,2.7,5.4,27,0.00,,,0.00,VWS V14.01,2013-08-15 01:32:00,
2013-08-14 18:37:00,66.4,33.2,29.90,SW,224,2.7,5.8,29,0.00,,,0.00,VWS V14.01,2013-08-15 01:37:00,
2013-08-14 18:42:00,66.0,33.7,29.90,South,176,4.0,6.3,30,0.00,,,0.00,VWS V14.01,2013-08-15 01:42:00,
2013-08-14 18:47:00,65.3,34.7,29.90,South,187,3.6,4.9,32,0.00,,,0.00,VWS V14.01,2013-08-15 01:47:00,
2013-08-14 18:52:00,65.1,36.1,29.90,SE,141,3.1,5.8,34,0.00,,,0.00,VWS V14.01,2013-08-15 01:52:00,
2013-08-14 18:57:00,64.8,35.8,29.90,SSE,161,4.0,5.8,34,0.00,,,0.00,VWS V14.01,2013-08-15 01:57:00,
2013-08-14 19:02:00,64.4,35.5,29.90,South,180,2.2,7.6,34,0.00,,,0.00,VWS V14.01,2013-08-15 02:02:00,
2013-08-14 19:07:00,63.9,35.7,29.90,SSE,158,3.1,4.0,35,0.00,,,0.00,VWS V14.01,2013-08-15 02:07:00,
2013-08-14 19:12:00,63.5,36.1,29.90,SSW,204,4.0,4.0,36,0.00,,,0.00,VWS V14.01,2013-08-15 02:12:00,
2013-08-14 19:17:00,63.0,36.3,29.90,SW,229,2.7,2.7,37,0.00,,,0.00,VWS V14.01,2013-08-15 02:17:00,
2013-08-14 19:22:00,63.0,36.3,29.90,SE,129,2.2,2.2,37,0.00,,,0.00,VWS V14.01,2013-08-15 02:22:00,
2013-08-14 19:27:00,62.8,37.5,29.90,SSE,168,4.0,4.0,39,0.00,,,0.00,VWS V14.01,2013-08-15 02:27:00,
2013-08-14 19:32:00,62.6,38.0,29.90,WSW,246,3.6,5.4,40,0.00,,,0.00,VWS V14.01,2013-08-15 02:32:00,
2013-08-14 19:37:00,62.4,39.7,29.90,SW,222,5.4,5.4,43,0.00,,,0.00,VWS V14.01,2013-08-15 02:37:00,
2013-08-14 19:42:00,62.2,40.1,29.90,SSW,210,2.7,2.7,44,0.00,,,0.00,VWS V14.01,2013-08-15 02:42:00,
2013-08-14 19:47:00,62.2,40.1,29.90,SSW,205,2.7,4.0,44,0.00,,,0.00,VWS V14.01,2013-08-15 02:47:00,
2013-08-14 19:52:00,62.1,40.5,29.90,South,178,3.1,3.1,45,0.00,,,0.00,VWS V14.01,2013-08-15 02:52:00,
2013-08-14 19:57:00,62.1,40.5,29.90,SW,235,4.0,4.0,45,0.00,,,0.00,VWS V14.01,2013-08-15 02:57:00,
2013-08-14 20:02:00,61.9,40.9,29.90,SSW,206,3.1,3.1,46,0.00,,,0.00,VWS V14.01,2013-08-15 03:02:00,
2013-08-14 20:07:00,61.9,40.9,29.90,WSW,249,4.5,4.5,46,0.00,,,0.00,VWS V14.01,2013-08-15 03:07:00,
2013-08-14 20:12:00,61.9,41.5,29.90,SSW,206,3.6,3.6,47,0.00,,,0.00,VWS V14.01,2013-08-15 03:12:00,
2013-08-14 20:17:00,61.9,41.5,29.90,SSW,207,2.7,3.6,47,0.00,,,0.00,VWS V14.01,2013-08-15 03:17:00,
2013-08-14 20:22:00,61.9,42.0,29.90,SSW,204,0.0,2.2,48,0.00,,,0.00,VWS V14.01,2013-08-15 03:22:00,
2013-08-14 20:27:00,61.9,42.0,29.90,SSW,202,2.7,3.1,48,0.00,,,0.00,VWS V14.01,2013-08-15 03:27:00,
2013-08-14 20:32:00,61.7,42.4,29.90,SW,235,3.1,3.1,49,0.00,,,0.00,VWS V14.01,2013-08-15 03:32:00,
2013-08-14 20:37:00,61.7,42.4,29.90,SW,218,0.0,3.1,49,0.00,,,0.00,VWS V14.01,2013-08-15 03:37:00,
2013-08-14 20:42:00,61.7,42.9,29.90,SW,219,3.1,3.1,50,0.00,,,0.00,VWS V14.01,2013-08-15 03:42:00,
2013-08-14 20:47:00,61.5,42.7,29.90,SW,235,2.7,3.6,50,0.00,,,0.00,VWS V14.01,2013-08-15 03:47:00,
2013-08-14 20:52:00,61.5,43.2,29.90,South,172,3.6,3.6,51,0.00,,,0.00,VWS V14.01,2013-08-15 03:52:00,
2013-08-14 20:57:00,61.5,43.2,29.90,SW,228,2.2,2.2,51,0.00,,,0.00,VWS V14.01,2013-08-15 03:57:00,
2013-08-14 21:01:00,61.5,43.2,29.90,SSW,204,0.0,2.7,51,0.00,,,0.00,VWS V14.01,2013-08-15 04:01:00,
2013-08-14 21:06:00,61.3,43.1,29.90,WSW,246,2.2,2.7,51,0.00,,,0.00,VWS V14.01,2013-08-15 04:06:00,
2013-08-14 21:11:00,61.3,43.1,29.90,SW,216,3.6,4.0,51,0.00,,,0.00,VWS V14.01,2013-08-15 04:11:00,
2013-08-14 21:16:00,61.2,42.9,29.90,WSW,237,0.0,0.0,51,0.00,,,0.00,VWS V14.01,2013-08-15 04:16:00,
2013-08-14 21:21:00,61.3,43.6,29.90,South,186,2.2,2.7,52,0.00,,,0.00,VWS V14.01,2013-08-15 04:21:00,
2013-08-14 21:26:00,61.3,43.6,29.90,SW,214,2.7,4.0,52,0.00,,,0.00,VWS V14.01,2013-08-15 04:26:00,
2013-08-14 21:31:00,61.5,43.8,29.90,SW,222,2.7,2.7,52,0.00,,,0.00,VWS V14.01,2013-08-15 04:31:00,
2013-08-14 21:36:00,61.7,44.4,29.93,SW,221,2.2,3.1,53,0.00,,,0.00,VWS V14.01,2013-08-15 04:36:00,
2013-08-14 21:41:00,61.5,44.2,29.93,SW,221,0.0,2.7,53,0.00,,,0.00,VWS V14.01,2013-08-15 04:41:00,
2013-08-14 21:46:00,61.7,44.4,29.93,SW,225,2.7,2.7,53,0.00,,,0.00,VWS V14.01,2013-08-15 04:46:00,
2013-08-14 21:51:00,61.7,44.9,29.93,South,179,3.6,4.0,54,0.00,,,0.00,VWS V14.01,2013-08-15 04:51:00,
2013-08-14 21:56:00,61.7,44.9,29.93,SSW,212,2.7,3.1,54,0.00,,,0.00,VWS V14.01,2013-08-15 04:56:00,
2013-08-14 22:01:00,61.7,44.9,29.93,SSW,203,0.0,2.7,54,0.00,,,0.00,VWS V14.01,2013-08-15 05:01:00,
2013-08-14 22:07:00,61.7,44.9,29.93,WSW,243,2.7,3.6,54,0.00,,,0.00,VWS V14.01,2013-08-15 05:07:00,
2013-08-14 22:12:00,61.7,45.4,29.93,SSW,213,3.1,3.6,55,0.00,,,0.00,VWS V14.01,2013-08-15 05:12:00,
2013-08-14 22:17:00,61.7,45.4,29.93,SSW,197,3.1,5.4,55,0.00,,,0.00,VWS V14.01,2013-08-15 05:17:00,
2013-08-14 22:22:00,61.9,46.0,29.93,South,186,4.5,4.5,56,0.00,,,0.00,VWS V14.01,2013-08-15 05:22:00,
2013-08-14 22:27:00,61.9,46.0,29.93,SW,218,2.7,4.9,56,0.00,,,0.00,VWS V14.01,2013-08-15 05:27:00,
2013-08-14 22:32:00,61.9,46.0,29.93,South,171,3.6,4.0,56,0.00,,,0.00,VWS V14.01,2013-08-15 05:32:00,
2013-08-14 22:37:00,61.7,45.9,29.93,South,170,2.2,3.6,56,0.00,,,0.00,VWS V14.01,2013-08-15 05:37:00,
2013-08-14 22:42:00,61.7,45.9,29.93,SSW,198,2.7,2.7,56,0.00,,,0.00,VWS V14.01,2013-08-15 05:42:00,
2013-08-14 22:47:00,61.7,46.3,29.93,South,191,3.1,3.1,57,0.00,,,0.00,VWS V14.01,2013-08-15 05:47:00,
2013-08-14 22:52:00,61.9,46.5,29.93,SSE,166,2.7,2.7,57,0.00,,,0.00,VWS V14.01,2013-08-15 05:52:00,
2013-08-14 22:57:00,61.7,46.3,29.93,South,176,0.0,0.0,57,0.00,,,0.00,VWS V14.01,2013-08-15 05:57:00,
2013-08-14 23:02:00,61.7,46.3,29.93,SSE,168,2.7,2.7,57,0.00,,,0.00,VWS V14.01,2013-08-15 06:02:00,
2013-08-14 23:07:00,61.5,46.2,29.93,SSE,152,0.0,0.0,57,0.00,,,0.00,VWS V14.01,2013-08-15 06:07:00,
2013-08-14 23:12:00,61.5,46.6,29.93,South,175,3.6,4.0,58,0.00,,,0.00,VWS V14.01,2013-08-15 06:12:00,
2013-08-14 23:17:00,61.5,46.6,29.93,SSE,161,3.1,3.1,58,0.00,,,0.00,VWS V14.01,2013-08-15 06:17:00,
2013-08-14 23:22:00,61.5,46.6,29.90,SSE,161,2.2,3.6,58,0.00,,,0.00,VWS V14.01,2013-08-15 06:22:00,
2013-08-14 23:27:00,61.5,47.1,29.90,SSE,163,3.1,4.0,59,0.00,,,0.00,VWS V14.01,2013-08-15 06:27:00,
2013-08-14 23:32:00,61.5,47.1,29.90,South,169,4.0,4.0,59,0.00,,,0.00,VWS V14.01,2013-08-15 06:32:00,
2013-08-14 23:37:00,61.5,47.1,29.93,South,181,2.7,2.7,59,0.00,,,0.00,VWS V14.01,2013-08-15 06:37:00,
2013-08-14 23:42:00,61.7,47.7,29.93,East,98,0.0,3.6,60,0.00,,,0.00,VWS V14.01,2013-08-15 06:42:00,
2013-08-14 23:47:00,61.7,47.7,29.93,SSE,151,0.0,0.0,60,0.00,,,0.00,VWS V14.01,2013-08-15 06:47:00,
2013-08-14 23:52:00,61.7,47.7,29.93,SSE,159,5.4,5.4,60,0.00,,,0.00,VWS V14.01,2013-08-15 06:52:00,
2013-08-14 23:57:00,61.7,48.1,29.93,South,183,0.0,2.7,61,0.00,,,0.00,VWS V14.01,2013-08-15 06:57:00,